Location: Township of Marena
(38.1747°N, 99.6798°W)
Time: 12:13:26
(UTC+00:00)

ATLAS 2AS CENTAUR R/B - Pass Details

Date: 26 October 2020
Orbit: 939 x 1273 km, 63.7° (Epoch: 23 November)

Event Time Altitude Azimuth Distance (km) Brightness Sun altitude
Rises 02:34:35 0° 331° (NNW) 4,130 6.3 -33.5°
Reaches altitude 10° 02:37:45 10° 340° (NNW) 3,117 5.4 -34.1°
Enters shadow 02:41:40 27° 5° (N) 2,057 4.2 -34.9°
